www.pogodaiklimat.ru

Погода и климат >> Архив погоды >> Россия >> Якутия >> Юрты


ПОГОДА в Юртах

  • Прогноз погоды в Юртах
  • Монитор погоды в Юртах
  • Климат города

АРХИВ ПОГОДЫ в Юртах

Время (UTC), дата Ветер
(напр.,м/с)
 
Видим.   Явления Облачность Т
(С)
Тd
(С)
f
(%)
Тe
(С)
Тes
(С)
Комфортность P
(гПа)
Po
(гПа)
Тmin
(С)
Tmax
(С)
R
(мм)
R24
(мм)
S
(см)
09 14.10 штиль 0 50 км 10/0
[Ci fib]
-12.4 -17.6 65 -12 -12 1018.3 943.2 -10.4
12 14.10 штиль 0 50 км ясно -17.4 -18.0 95 -17 -17 1020.4 943.5
15 14.10 штиль 0 50 км ясно -17.4 -18.0 95 -17 -17 1020.4 943.5
18 14.10 штиль 0 50 км ясно -20.0 -20.0 100 -20 -20 1020.5 942.9
21 14.10 штиль 0 50 км 3/3 1000 м
[Sc]
-20.9 -20.9 100 -21 -21 1022.1 944.1 -20.9 <0.5
00 15.10 штиль 0 50 км 3/3 1000 м
[Sc]
-18.5 -19.1 95 -19 -18 1021.9 944.6
03 15.10 штиль 0 50 км 4/0
[Ci fib]
-9.8 -15.7 62 -10 -8 1018.5 944.0
06 15.10 штиль 0 50 км 10/0
[Ci fib]
-9.4 -17.0 54 -10 -9 1017.9 943.6
09 15.10 штиль 0 50 км 6/0
[Ci fib]
-13.8 -19.9 60 -14 -14 1012.8 944.1 -9.4
12 15.10 Ю 1 50 км ясно -14.2 -14.2 100 -17 -17 1020.5 944.6
15 15.10 Ю 1 50 км 10/0
[Ac trans Ci fib]
-15.0 -15.0 100 -18 -18 1020.8 944.6
18 15.10 штиль 0 50 км ясно -20.0 -20.0 100 -20 -20 1022.3 944.5
21 15.10 штиль 0 50 км ясно -21.4 -21.4 100 -21 -21 1023.8 945.6 -21.4 <0.5
00 16.10 штиль 0 50 км 5/0
[Ci fib]
-18.5 -19.1 95 -19 -18 1022.6 945.3
03 16.10 З 1 50 км 6/0
[Ac trans Ci fib]
-10.1 -14.5 70 -12 -11 1019.3 944.6
06 16.10 С 1 20 км слабый снег 10/0
[As trans Cs]
-8.0 -14.2 61 -10 -10 1017.6 943.5
09 16.10 штиль 0 50 км {снег} 10/0
[Ac trans Cs]
-9.2 -12.2 79 -10 -10 1019.6 945.2 -8.0 0.0
12 16.10 З 1 50 км {снег} 10/0
[Cs]
-11.6 -15.1 75 -14 -14 1020.8 945.6
15 16.10 С 1 50 км 10/0
[Ci fib]
-12.4 -15.1 80 -15 -15 1021.6 946.2
18 16.10 С 1 50 км 10/0
[Cs]
-14.8 -16.1 90 -17 -17 1023.3 947.1
21 16.10 штиль 0 50 км 4/0
[Ci fib]
-18.4 -19.6 90 -18 -18 1024.9 947.8 -18.4 <0.5
00 17.10 штиль 0 50 км 8/0
[Ac trans]
-15.0 -16.3 90 -15 -15 1025.4 948.9
03 17.10 штиль 0 50 км 10/0
[Ac trans]
-8.4 -13.3 68 -9 -8 1023.6 949.1
06 17.10 З 3 50 км 10/0
[Ci fib]
-7.2 -12.0 69 -13 -13 1024.0 949.8
09 17.10 штиль 0 50 км 3/0
[Ci fib]
-14.0 -16.7 80 -14 -14 1026.1 949.8 -7.2
12 17.10 штиль 0 50 км ясно -16.6 -16.6 100 -17 -17 1027.7 950.5
15 17.10 штиль 0 50 км ясно -18.8 -18.8 100 -19 -19 1028.9 951.1
18 17.10 штиль 0 50 км ясно -20.1 -20.1 100 -20 -20 1030.0 951.7
21 17.10 штиль 0 50 км 8/0
[Ci fib]
-21.1 -21.1 100 -21 -21 1032.0 953.3 -21.1 <0.5
00 18.10 штиль 0 50 км 10/0
[Ac As]
-18.5 -19.1 95 -19 -18 1032.1 954.0
03 18.10 СЗ 1 50 км 10/0
[Ac As]
-12.4 -13.0 95 -15 -14 1028.3 952.4
06 18.10 СЗ 2 50 км 10/0
[Ac As]
-11.0 -13.8 80 -16 -16 1027.7 952.1
09 18.10 штиль 0 50 км 10/0
[Ac As]
-11.4 -13.4 85 -12 -12 1027.9 952.3 -11.0
12 18.10 штиль 0 50 км 10/0
[Ac As]
-12.0 -13.3 90 -12 -12 1028.2 952.3
15 18.10 штиль 0 50 км 10/0
[Ac As]
-12.0 -13.3 90 -12 -12 1028.4 952.5
18 18.10 штиль 0 50 км 10/0
[As op]
-12.1 -13.4 90 -12 -12 1028.3 952.4
21 18.10 штиль 0 50 км 10/0
[As op]
-13.2 -14.4 91 -13 -13 1027.3 951.2 -13.2 <0.5
00 19.10 штиль 0 50 км 10/3 1000 м
[Sc Ac As]
-10.8 -11.4 95 -11 -11 1027.4 952.0
03 19.10 Ю 4 50 км 9/9 1000 м
[Sc]
-6.4 -14.6 52 -13 -12 1025.6 951.5
06 19.10 Ю 4 50 км 9/9 1000 м
[Sc]
-7.3 -15.5 52 -14 -14 1025.6 951.5
09 19.10 ЮЗ 1 50 км 10/10
[Sc]
-3.4 -15.4 39 -5 -5 1025.4 951.7 -7.4
12 19.10 Ю 3 50 км 10/10 1000 м
[Sc]
-9.2 -15.4 61 -15 -15 1027.0 952.0
15 19.10 Ю 6
{10}
50 км 10/10 1000 м
[Sc]
-11.6 -16.0 70 -20 -20 1028.4 952.7
18 19.10 Ю 7
{12}
50 км 10/10 1000 м
[Sc]
-12.0 -16.4 70 -21 -21 1029.2 953.3
21 19.10 Ю 7
{13}
50 км 6/6 1000 м
[Sc]
-11.6 -16.0 70 -21 -21 1030.6 954.6 -12.0 <0.5
00 20.10 Ю 6
{10}
50 км 3/0
[Ac trans]
-17.0 -21.2 70 -27 -27 1033.7 956.0 -17.0
03 20.10 Ю 5
{11}
50 км 3/0
[Ac trans]
-12.8 -17.1 70 -21 -20 1032.6 956.3
06 20.10 Ю 4 50 км 10/9 1000 м
[Sc]
-11.3 -15.7 70 -18 -18 1033.6 957.6
09 20.10 Ю 3 50 км 10/10 1000 м
[Sc]
-11.6 -16.0 70 -18 -18 1033.3 957.2 -11.3
12 20.10 Ю 3 50 км 10/10 1000 м
[Sc]
-12.2 -15.6 76 -18 -18 1034.4 958.1
15 20.10 Ю 3 50 км ясно -12.2 -16.6 70 -18 -18 1034.4 958.1
18 20.10 Ю 5 50 км ясно -13.5 -17.8 70 -22 -22 1037.2 960.2
21 20.10 ЮВ 3 50 км ясно -17.8 -20.4 80 -25 -25 1038.0 959.8 -17.8 <0.5
00 21.10 ЮВ 4
{10}
50 км ясно +18.4 -20.3 6 +18 +18 1038.9 960.4 -18.4
03 21.10 Ю 3 50 км 1/0
[Ci fib]
-14.7 -17.4 80 -21 -20 1037.7 960.4
06 21.10 Ю 1 50 км 10/0
[Ci fib]
-14.9 -17.6 80 -17 -17 1037.2 959.9

 

Местоположение метеостанции Юрты (Якутия, Россия): широта 64.05 долгота 141.80 высота над уровнем моря 590 м.

В архиве по умолчанию представлена погода в Юртах за последнюю неделю. Архивные данные за месяц целиком и за предыдущие месяцы, начиная с января 2011 года, Вы можете получить, выбрав интересующий диапазон дат из раскрывающегося списка и нажав кнопку "Ввод!".

Внимание! Время в таблицах - всемирное. Для получения местного времени необходимо прибавить поправку, которая в Юртах равна 10 ч.

Смотрите также архив погоды в соседних городах и на ближайших метеорологических станциях:

Погода в Агаякане (Якутия, Россия) (80 км)
Погода в Усть-Нере (Якутия, Россия) (82 км)
Погода в Оймяконе (Якутия, Россия) (110 км)
Погода в Восточной (Якутия, Россия) (142 км)
Погода в Делянкире (Якутия, Россия) (187 км)
Погода в Усть-Моме (Якутия, Россия) (275 км)
Погода в Теплом Ключе (Якутия, Россия) (286 км)
Погода в Томпо (Якутия, Россия) (293 км)
Погода в Иэме (Якутия, Россия) (317 км)
Погода в Сусумане (Магаданская область, Россия) (344 км)

Пояснения к столбцам:

Ветер - указаны скорость ветра в м/с - средняя за 10 мин, порывы в срок и между сроками (в фигурных скобках) и направление, откуда дует ветер: С - северный, СВ - северо-восточный, В - восточный, ЮВ - юго-восточный, Ю - южный, ЮЗ - юго-западный, З - западный, СЗ - северо-западный.
Видимость - горизонтальная дальность видимости в метрах или километрах. При видимости от 1 до 10 км при отсутствии осадков обычно наблюдается дымка, при ухудшении видимости до 1 км и менее - туман. В сухую погоду видимость может ухудшаться дымом, пылью или мглою.
Явления - указаны атмосферные явления, наблюдавшиеся в срок или в последний час перед сроком; фигурными скобками обозначены явления, наблюдавшиеся между сроками (за 1-3 часа до срока); квадратными скобками обозначены град или гололедные отложения с указанием их диаметра в мм.
Облачность - указаны через наклонную черту общая и нижняя облачность в баллах и высота нижней границы облаков в метрах; квадратными скобками обозначены формы облаков: Ci - перистые, Cs - перисто-слоистые, Cc - перисто-кучевые, Ac - высококучевые, As - высокослоистые, Sc - слоисто-кучевые, Ns - слоисто-дождевые, Cu - кучевые, Cb - кучево-дождевые. Подробнее классификацию облаков см. в Атласе облаков (PDF).
T - Температура воздуха - температура, измеренная на высоте 2 м над землей.
Td - Температура точки росы - температура, при понижении до которой содержащийся в воздухе водяной пар достигнет насыщения.
f - Относительная влажность воздуха - влажноcть воздуха, измеренная на высоте 2 м над землей.
Te - Эффективная температура - температура, которую ощущает одетый по сезону человек в тени. Характеристика душности погоды. При расчете учитывается влияние влажности воздуха и скорости ветра на теплоощущения человека.
Tes - Эффективная температура на солнце - температура, которую ощущает человек, с поправкой на солнечный нагрев. Характеристика знойности погоды. Зависит от высоты солнца над горизонтом, облачности и скорости ветра. Ночью, в пасмурную погоду, а также при ветре 12 м/с и более поправка равна нулю.
P - Атмосферное давление - приведенное к уровню моря атмосферное давление.
Po - Атмосферное давление - измеренное на уровне метеостанции атмосферное давление.
Tmin - Минимальная температура - минимум температуры воздуха на высоте 2 м над землей.
Tmax - Максимальная температура - максимум температуры воздуха на высоте 2 м над землей.
R - Количество осадков - Количество выпавших осадков за период времени, мм. При наведении курсора мыши на число - период времени, за который выпало указанное количество осадков.
R24 - Количество осадков - Количество выпавших осадков за 24 часа, мм.
S - Снежный покров - Высота снежного покрова, см. При наведении курсора мыши на число - состояние снежного покрова и степень покрытия местности в баллах.